Starlink 35058

operational
NORAD ID: 65394 Int'l Des: 2025-191 Owner: SPXS Country: US Constellation: starlink
LEOCIRCULARRETROGRADE

Über Starlink 35058

Beschreibung wird geladen...

Live-Position

3D-Globus wird geladen...

Nächste Überflüge

Höhenverlauf

Altitude vs Time

uPlot chart will show altitude changes over time

Zweizeiliger Elementsatz

1 65394U 25191R 25340.61751360 .00013691 00000-0 95091-3 0 9995
2 65394 97.6016 209.7695 0003133 82.6288 277.5294 15.05660077 16268
Epoch: 6. Dez. 2025 • Age: 26 hours

Aktueller Status

Höhe 557.3 km
Geschwindigkeit 7.59 km/s
Subsatellitenpunkt 56.31°N, 72.35°E
Startdatum 30. Aug. 2025
Alter 0.2 years
Typ internet

Technische Details

Klassifizierung Payload
Masse 575.00 kg
Trockenmasse 530.00 kg
Gesamtmasse 575.00 kg
Länge 0.30 m
Durchmesser 4.10 m
Spannweite 29.00 m
Form Box + pan
Hersteller SPXS
Bus-Typ Starlink V2MO
Phasenstatus In Orbit
Besitzer/Staat SPXS/US

Große Konstellationen

Loading constellations...